Location: Rancho Del Sol Observatory
(38.7214°N, 120.6350°W)
Time: 19:31:58
(UTC-08:00)

deb Explorer IX - Visible Passes

Search period start: 19 January 2020 00:00
Search period end: 29 January 2020 00:00
Orbit: 548 x 1101 km, 38.8° (Epoch: 19 January)

Date Brightness Start Highest point End Pass type
(mag) Time Alt. Az. Time Alt. Az. Time Alt. Az.
19 Jan ? 03:58:54 28° ESE 03:58:54 28° ESE 04:01:24 10° ESE visible
19 Jan ? 05:40:15 26° WSW 05:42:18 33° SSW 05:47:07 10° SSE visible
20 Jan ? 03:37:55 18° ESE 03:37:55 18° ESE 03:39:13 10° ESE visible
20 Jan ? 05:19:17 33° SW 05:19:59 33° SSW 05:24:57 10° SSE visible
21 Jan ? 04:58:21 33° SSW 04:58:21 33° SSW 05:02:45 10° SSE visible
22 Jan ? 04:37:30 26° S 04:37:30 26° S 04:40:33 10° SSE visible
23 Jan ? 04:16:39 18° SSE 04:16:39 18° SSE 04:18:18 10° SSE visible
24 Jan ? 03:55:53 11° SSE 03:55:53 11° SSE 03:56:04 10° SSE visible
24 Jan ? 20:13:38 10° SSW 20:14:41 14° S 20:14:41 14° S visible
25 Jan ? 19:51:17 10° SSW 19:53:57 20° S 19:53:57 20° S visible
26 Jan ? 19:28:57 10° SSW 19:33:11 25° SSE 19:33:11 25° SSE visible
26 Jan ? 21:14:11 10° WSW 21:14:34 12° WSW 21:14:34 12° WSW visible
27 Jan ? 19:06:37 10° SSW 19:11:46 26° SE 19:12:22 26° SE visible
27 Jan ? 20:51:51 10° WSW 20:53:45 21° WSW 20:53:45 21° WSW visible
28 Jan ? 18:44:19 10° SSW 18:49:20 26° SE 18:51:30 22° ESE visible
28 Jan ? 20:29:31 10° WSW 20:32:52 33° SW 20:32:52 33° SW visible
